Campo, CA

1:34 AM PST on February 11, 2016 (GMT -0800)
Campo

Weather History for KCZZ - December, 2012

Change the Weather History Date:

Tuesday, December 18, 2012

  Actual Average Record
Temperature  
Mean Temperature 49 °F 47 °F  
Max Temperature 51 °F 62 °F 79 °F (1979)
Min Temperature 47 °F 32 °F 20 °F (1990)
Degree Days  
Heating Degree Days 16 18  
Month to date heating degree days 253 310  
Since 1 July heating degree days 682 880  
Cooling Degree Days 0 0  
Month to date cooling degree days 0 0  
Year to date cooling degree days 942 841  
Moisture  
Dew Point 42 °F    
Average Humidity 85    
Maximum Humidity 93    
Minimum Humidity 77    
Precipitation  
Precipitation 0.10 in 0.08 in 0.76 in (1978)
Month to date precipitation 1.51 1.21  
Year to date precipitation 9.75 14.67  
Since 1 July precipitation 3.70  
Snow  
Snow 0.00 in - - ()
Month to date snowfall 0.0  
Year to date snowfall 0.0  
Snow Depth 0.00 in    
Sea Level Pressure  
Sea Level Pressure 29.82 in    
Wind  
Wind Speed 10 mph (WSW)    
Max Wind Speed 28 mph    
Max Gust Speed 35 mph    
T = Trace of Precipitation, MM = Missing Value Source: NWS Daily Summary

Daily Weather History Graph

Daily Weather History Graph

Search for Another Location

Airport or City:

Trip Planner

Search our weather history database for the weather conditions in past years. The results will help you decide how hot, cold, wet, or windy it might be!

Date:

Astronomy

Dec. 18, 2012 Rise Set
Actual Time 6:42 AM PST 4:43 PM PST
Civil Twilight 6:15 AM PST 5:10 PM PST
Nautical Twilight 5:44 AM PST 5:41 PM PST
Astronomical Twilight 5:14 AM PST 6:11 PM PST
Moon 10:42 AM PST (12/18) 10:54 PM PST (12/18)
Length of Visible Light 10h 54m
Length of Day
10h 00m
Waxing Crescent, 36% of the Moon is Illuminated
Dec 18
Waxing Crescent
Dec 19
First Quarter
Dec 28
Full
Jan 4
Last Quarter
Jan 11
New

Hourly Weather History & Observations

Time (PST) Temp. Windchill Dew Point Humidity Pressure Visibility Wind Dir Wind Speed Gust Speed Precip Events Conditions
12:52 AM 50.0 °F - 46.0 °F 86% 29.91 in - SW 5.8 mph - N/A   Unknown
1:52 AM 50.0 °F - 45.0 °F 83% 29.90 in - WSW 5.8 mph - N/A   Unknown
2:52 AM 48.9 °F - 45.0 °F 86% 29.89 in - WSW 6.9 mph - N/A   Unknown
3:52 AM 48.9 °F - 45.0 °F 86% 29.86 in - SW 6.9 mph - N/A   Unknown
4:52 AM 48.9 °F - 46.0 °F 90% 29.85 in - WSW 9.2 mph - N/A   Unknown
5:52 AM 48.0 °F - 46.0 °F 93% 29.84 in - SW 9.2 mph - N/A   Unknown
6:52 AM 48.0 °F - 46.0 °F 93% 29.84 in - SW 5.8 mph - N/A   Unknown
7:52 AM 48.9 °F - 46.0 °F 90% 29.84 in - SW 4.6 mph - N/A   Unknown
8:52 AM 50.0 °F - 45.0 °F 83% 29.85 in - SSW 10.4 mph - N/A   Unknown
9:52 AM 51.1 °F - 45.0 °F 80% 29.83 in - SW 6.9 mph - N/A   Unknown
10:52 AM 51.1 °F - 45.0 °F 80% 29.82 in - SW 13.8 mph 18.4 mph N/A   Unknown
11:52 AM 50.0 °F - 46.0 °F 86% 29.79 in - SW 16.1 mph - N/A   Unknown
12:52 PM 51.1 °F - 46.9 °F 86% 29.76 in - SW 17.3 mph 25.3 mph 0.01 in   Unknown
1:52 PM 51.1 °F - 46.9 °F 86% 29.74 in - WSW 17.3 mph 26.5 mph 0.04 in   Unknown
2:52 PM 50.0 °F - 46.9 °F 89% 29.73 in - West 21.9 mph 26.5 mph 0.05 in   Unknown
3:52 PM 46.9 °F - - N/A% 29.76 in - West 24.2 mph 33.4 mph N/A   Unknown
4:52 PM 45.0 °F 38.5 °F - N/A% 29.78 in - WSW 13.8 mph - 0.04 in   Unknown
5:52 PM 45.0 °F 37.1 °F - N/A% 29.78 in - WSW 19.6 mph 26.5 mph N/A   Unknown
6:52 PM 44.1 °F 37.7 °F - N/A% 29.80 in - WSW 12.7 mph 23.0 mph N/A   Unknown
7:52 PM 43.0 °F 35.4 °F 37.9 °F 82% 29.81 in - WSW 16.1 mph 26.5 mph N/A   Unknown
8:52 PM 43.0 °F 35.4 °F 37.0 °F 80% 29.82 in - WSW 16.1 mph 23.0 mph N/A   Unknown
9:52 PM 43.0 °F 35.1 °F 34.0 °F 71% 29.85 in - West 17.3 mph 29.9 mph N/A   Unknown
10:52 PM 41.0 °F 33.5 °F 27.0 °F 57% 29.86 in - WSW 13.8 mph 20.7 mph N/A   Unknown
11:52 PM 39.9 °F 32.1 °F 23.0 °F 51% 29.88 in - West 13.8 mph 21.9 mph N/A   Unknown